Location: Platte
(43.3870°N, 98.8440°W)
Time: 14:41:37
(UTC-05:00)

Landsat 7 - Visible Passes

Search period start: 19 April 2018 00:00
Search period end: 29 April 2018 00:00
Orbit: 701 x 703 km, 98.2° (Epoch: 19 April)

Date Brightness Start Highest point End Pass type
(mag) Time Alt. Az. Time Alt. Az. Time Alt. Az.
19 Apr 4.4 22:42:33 41° ENE 22:42:39 41° ENE 22:47:07 10° N visible
20 Apr 5.9 00:21:25 21° WNW 00:21:25 21° WNW 00:24:15 10° NW visible
20 Apr 5.8 21:46:49 12° ENE 21:48:11 14° ENE 21:50:33 10° NNE visible
20 Apr 4.0 23:25:42 70° NW 23:25:42 70° NW 23:30:05 10° NNW visible
21 Apr 4.7 22:29:59 31° E 22:30:29 32° ENE 22:34:42 10° N visible
22 Apr 5.4 00:08:52 28° W 00:08:52 28° W 00:12:20 10° NW visible
22 Apr 6.0 21:35:07 10° ENE 21:36:06 11° ENE 21:37:06 10° NE visible
22 Apr 3.7 23:13:09 82° NE 23:13:09 82° NE 23:17:50 10° NNW visible
23 Apr 6.5 00:52:01 11° W 00:52:01 11° W 00:52:35 10° WNW visible
23 Apr 5.1 22:17:25 24° E 22:18:20 25° ENE 22:22:12 10° NNE visible
23 Apr 5.0 23:56:18 37° W 23:56:18 37° W 00:00:19 10° NNW visible
24 Apr 3.8 23:00:36 62° E 23:00:50 63° ENE 23:05:33 10° N visible
25 Apr 6.2 00:39:28 14° W 00:39:28 14° W 00:41:38 10° NW visible
25 Apr 5.4 22:04:53 18° E 22:06:13 20° ENE 22:09:37 10° NNE visible
25 Apr 4.4 23:43:46 49° W 23:43:46 49° W 23:48:14 10° NNW visible
26 Apr 4.1 22:48:03 45° E 22:48:38 47° ENE 22:53:13 10° N visible
27 Apr 5.9 00:26:55 19° W 00:26:55 19° W 00:30:02 10° NW visible
27 Apr 5.7 21:52:20 13° E 21:54:08 16° ENE 21:56:54 10° NNE visible
27 Apr 3.9 23:31:13 66° WSW 23:31:19 66° WSW 23:36:05 10° NNW visible
28 Apr 4.5 22:35:30 33° E 22:36:28 36° ENE 22:40:49 10° N visible
